User: anonymous   Login
Location: ????????
(54.9045°N, 39.1041°E)
Time: 13:47:51
(UTC+00:00)
Language:

Cosmos 1743 Rocket - Orbit

View from above orbital plane
View from above orbital plane
View from above satellite
View from above satellite

Ground track
Ground track

The orbit data is extracted from the following two-line orbital elements,

1 16720U 86034B   24173.97387490  .00000569  00000-0  64555-4 0  9990
2 16720  82.5537  12.1631 0018201 288.4267 186.8160 14.84534497 37998
Epoch (UTC): 21 June 2024 23:22:22
Eccentricity: 0.0018201
inclination: 82.5537°
perigee height: 602 km
apogee height: 628 km
right ascension of ascending node: 12.1631°
argument of perigee: 288.4267°
revolutions per day: 14.84534497
mean anomaly at epoch: 186.8160°
orbit number at epoch: 3799

The dashed part of the orbit path shows where the satellite is in the earth's shadow,  

DLR